Torna al catalogo

CZ-6A DEB

AttivoSSO
NORAD 54411·DEBRIS·🇨🇳 China

Lanciato Nov 11, 2022 da Taiyuan Satellite Launch Center

Loading…

Prossimi Passaggi (prossime 24 ore)

TLE

AggiornatoSource: Space-Track

Epoca: Sep 14, 2026, 11:59 UTC

1 54411U 22151EK  26257.49956497  .00001258  00000-0  40260-3 0  9992
2 54411  98.7055 282.4057 0203506  48.2703 313.5685 14.30233752199672

Traccia CZ-6A DEB in tempo reale con AllMySat

Download on the App Store